SV1LH-1 Melissia GR current weather conditions

sailwx.info

Wind from 292 at 5 knots gusting 6

Air temperature 30.6° C
Dewpoint 13.3° C

Last reported at 2017-Jul-27 08:10 UTC.
Time now 2017-Jul-27 08:54 UTC

Location: N 38°03' E 023°51'.
View on Google Maps.

See reports from other nearby stations

  
Tides and Currents Weather Stations Pressure Air Temp Water Temp Dewpoint Dewpoint Depression Visibility Wind Speed Wind Dir Waves Ship Positions
date/time (UTC)wind fromknots sea level pressurealtimeterstation pressurevisibilityair tempwater tempwave heightnotes
2017-Jul-27 08:10 292 5 gusting 6 30.6
2017-Jul-27 08:05 247 3 gusting 9 30.6
2017-Jul-27 08:00 270 5 gusting 7 31.1
2017-Jul-27 07:55 270 6 gusting 9 31.1
2017-Jul-27 07:50 270 6 gusting 8 31.1
2017-Jul-27 07:45 247 5 gusting 8 31.1
2017-Jul-27 07:40 225 3 gusting 6 31.1
2017-Jul-27 07:35 270 5 gusting 7 31.1
2017-Jul-27 07:30 292 3 gusting 4 31.1
2017-Jul-27 07:25 202 3 gusting 6 31.1
2017-Jul-27 07:20 225 4 gusting 6 31.1
2017-Jul-27 07:15 270 4 gusting 6 31.1
2017-Jul-27 07:10 270 3 gusting 5 30.6
2017-Jul-27 07:05 30.6
2017-Jul-27 07:00 270 3 gusting 4 30.0
2017-Jul-27 06:55 247 2 gusting 5 30.0
2017-Jul-27 06:50 270 1 gusting 2 29.4
2017-Jul-27 06:45 270 2 gusting 4 29.4
2017-Jul-27 06:40 315 2 gusting 3 29.4
2017-Jul-27 06:35 157 1 gusting 4 28.9
2017-Jul-27 06:30 292 3 gusting 4 28.9
2017-Jul-27 06:25 202 2 gusting 5 28.9
2017-Jul-27 06:20 247 4 gusting 6 28.9
2017-Jul-27 06:15 292 1 gusting 3 28.3
2017-Jul-27 06:10 292 2 gusting 3 28.3
2017-Jul-27 06:05 292 2 gusting 4 28.3
2017-Jul-27 06:00 270 2 gusting 5 27.8
2017-Jul-27 05:55 292 2 gusting 3 27.8
2017-Jul-27 05:50 292 2 gusting 3 27.8
2017-Jul-27 05:45 315 2 gusting 4 28.3
2017-Jul-27 05:40 247 1 gusting 2 28.9
2017-Jul-27 05:35 225 0 gusting 1 28.9
2017-Jul-27 05:30 270 0 gusting 1 27.8
2017-Jul-27 05:25 270 0 gusting 1 27.2
2017-Jul-27 05:20 292 1 gusting 2 27.2
2017-Jul-27 05:15 270 26.7
2017-Jul-27 05:10 270 26.1
2017-Jul-27 05:05 225 25.6
2017-Jul-27 05:00 247 25.0
2017-Jul-27 04:55 112 0 gusting 1 23.9
2017-Jul-27 04:50 090 23.3
2017-Jul-27 04:45 090 0 gusting 0 22.8
2017-Jul-27 04:40 112 1 gusting 1 22.8
2017-Jul-27 04:35 090 0 gusting 1 22.2
2017-Jul-27 04:30 112 0 gusting 1 22.2
2017-Jul-27 04:25 090 0 gusting 0 21.7
2017-Jul-27 04:20 157 21.1
2017-Jul-27 04:15 045 20.6
2017-Jul-27 04:10 20.0
2017-Jul-27 04:05 067 0 gusting 0 20.0
2017-Jul-27 04:00 090 0 gusting 1 20.0
2017-Jul-27 03:55 090 20.0
2017-Jul-27 03:50 180 20.0
2017-Jul-27 03:45 315 20.0
2017-Jul-27 03:40 090 0 gusting 1 20.0
2017-Jul-27 03:35 090 1 gusting 1 20.0
2017-Jul-27 03:30 090 0 gusting 1 20.0
2017-Jul-27 03:25 112 0 gusting 0 20.0
2017-Jul-27 03:20 112 20.0
2017-Jul-27 03:15 090 1 gusting 2 20.0
2017-Jul-27 03:10 112 20.0
2017-Jul-27 03:05 180 20.0
2017-Jul-27 03:00 270 20.0
2017-Jul-27 02:55 090 0 gusting 1 20.0
2017-Jul-27 02:50 090 0 gusting 1 20.0
2017-Jul-27 02:45 112 20.0
2017-Jul-27 02:40 090 1 gusting 2 20.0
2017-Jul-27 02:35 20.6
2017-Jul-27 02:30 135 20.6
2017-Jul-27 02:25 112 0 gusting 1 20.6
2017-Jul-27 02:20 112 0 gusting 0 21.1
2017-Jul-27 02:15 022 21.1
2017-Jul-27 02:10 225 1 gusting 2 21.1
2017-Jul-27 02:05 337 0 gusting 0 21.1
2017-Jul-27 02:00 067 0 gusting 1 21.1
2017-Jul-27 01:55 045 1 gusting 2 21.1
2017-Jul-27 01:50 292 21.1
2017-Jul-27 01:45 045 21.1
2017-Jul-27 01:40 045 0 gusting 0 21.1
2017-Jul-27 01:35 337 0 gusting 0 21.1
2017-Jul-27 01:30 270 0 gusting 2 21.1
2017-Jul-27 01:25 21.1
2017-Jul-27 01:20 270 0 gusting 0 21.1
2017-Jul-27 01:15 315 21.1
2017-Jul-27 01:10 21.1
2017-Jul-27 01:05 337 21.1
2017-Jul-27 01:00 21.1
2017-Jul-27 00:55 112 0 gusting 0 21.7
2017-Jul-27 00:50 112 0 gusting 1 21.7
2017-Jul-27 00:45 067 21.7
2017-Jul-27 00:40 202 21.7
2017-Jul-27 00:35 180 21.7
2017-Jul-27 00:30 045 0 gusting 0 22.2
2017-Jul-27 00:25 225 22.2
2017-Jul-27 00:20 022 22.2
2017-Jul-27 00:15 315 1 gusting 4 22.2
2017-Jul-27 00:10 337 22.8
2017-Jul-27 00:05 315 0 gusting 1 22.8
2017-Jul-27 00:00 22.8
2017-Jul-26 23:55 225 1 gusting 2 22.8
2017-Jul-26 23:50 337 1 gusting 2 22.8
2017-Jul-26 23:45 23.3
2017-Jul-26 23:40 292 1 gusting 2 23.3
2017-Jul-26 23:35 270 1 gusting 4 23.3
2017-Jul-26 23:30 315 1 gusting 2 23.3
2017-Jul-26 23:25 292 1 gusting 3 23.3
2017-Jul-26 23:20 045 23.3
2017-Jul-26 23:15 270 1 gusting 3 23.3
2017-Jul-26 23:10 045 0 gusting 1 23.3
2017-Jul-26 23:05 270 3 gusting 4 23.3
2017-Jul-26 23:00 292 2 gusting 3 23.3
2017-Jul-26 22:55 315 2 gusting 5 23.3
2017-Jul-26 22:50 23.3
2017-Jul-26 22:45 315 1 gusting 1 23.3
2017-Jul-26 22:40 315 1 gusting 3 23.3
2017-Jul-26 22:35 315 2 gusting 4 23.3
2017-Jul-26 22:30 022 1 gusting 3 23.3
2017-Jul-26 22:25 23.3
2017-Jul-26 22:20 157 23.3
2017-Jul-26 22:15 292 23.3
2017-Jul-26 22:10 23.3
2017-Jul-26 22:05 292 0 gusting 0 23.3
2017-Jul-26 22:00 292 0 gusting 1 23.3
2017-Jul-26 21:55 337 0 gusting 0 23.9
2017-Jul-26 21:50 045 23.9
2017-Jul-26 21:45 270 23.9
2017-Jul-26 21:40 315 0 gusting 1 23.9
2017-Jul-26 21:35 337 0 gusting 1 23.9
2017-Jul-26 21:30 292 0 gusting 1 24.4
2017-Jul-26 21:25 315 2 gusting 4 24.4
2017-Jul-26 21:20 315 0 gusting 1 24.4
2017-Jul-26 21:15 24.4
2017-Jul-26 21:10 315 0 gusting 1 24.4
2017-Jul-26 21:05 202 0 gusting 1 24.4
2017-Jul-26 21:00 270 1 gusting 2 25.0
2017-Jul-26 20:55 315 2 gusting 3 25.0
2017-Jul-26 20:50 292 1 gusting 3 25.0
2017-Jul-26 20:45 270 1 gusting 2 24.4
2017-Jul-26 20:40 247 4 gusting 6 24.4
2017-Jul-26 20:35 270 1 gusting 3 24.4
2017-Jul-26 20:30 270 2 gusting 3 23.9
2017-Jul-26 20:25 270 0 gusting 0 23.9
2017-Jul-26 20:20 292 0 gusting 0 23.9
2017-Jul-26 20:15 090 0 gusting 0 23.9
2017-Jul-26 20:10 112 23.9
2017-Jul-26 20:05 135 23.9
2017-Jul-26 20:00 067 24.4
2017-Jul-26 19:55 337 24.4
2017-Jul-26 19:50 25.0
2017-Jul-26 19:45 315 0 gusting 1 25.0
2017-Jul-26 19:40 225 25.0
2017-Jul-26 19:35 270 1 gusting 2 25.0
2017-Jul-26 19:30 225 1 gusting 3 25.0
2017-Jul-26 19:25 270 0 gusting 1 25.0
2017-Jul-26 19:20 270 1 gusting 2 25.0
2017-Jul-26 19:15 270 1 gusting 2 25.0
2017-Jul-26 19:10 247 2 gusting 3 25.0
2017-Jul-26 19:05 247 25.6
2017-Jul-26 19:00 247 25.6
2017-Jul-26 18:55 180 25.6
2017-Jul-26 18:50 225 0 gusting 1 25.6
2017-Jul-26 18:45 270 1 gusting 2 25.6
2017-Jul-26 18:40 247 1 gusting 2 26.1
2017-Jul-26 18:35 202 1 gusting 2 26.1
2017-Jul-26 18:30 315 0 gusting 1 26.1
2017-Jul-26 18:25 315 1 gusting 3 26.1
2017-Jul-26 18:20 270 1 gusting 2 26.1
2017-Jul-26 18:15 225 2 gusting 3 26.1
2017-Jul-26 18:10 022 0 gusting 1 26.1
2017-Jul-26 18:05 270 26.1
2017-Jul-26 18:00 315 0 gusting 1 26.7
2017-Jul-26 17:55 247 1 gusting 3 26.7
2017-Jul-26 17:50 180 1 gusting 3 26.7
2017-Jul-26 17:45 225 0 gusting 1 26.7
2017-Jul-26 17:40 27.2
2017-Jul-26 17:35 180 2 gusting 3 27.2
2017-Jul-26 17:30 270 3 gusting 4 27.8
2017-Jul-26 17:25 270 1 gusting 3 28.3
2017-Jul-26 17:20 247 2 gusting 3 28.3
2017-Jul-26 17:15 292 1 gusting 2 28.9
2017-Jul-26 17:10 337 0 gusting 1 28.9
2017-Jul-26 17:05 247 3 gusting 5 29.4
2017-Jul-26 17:00 270 3 gusting 5 30.0
2017-Jul-26 16:55 247 2 gusting 4 30.0
2017-Jul-26 16:50 247 0 gusting 1 30.6
2017-Jul-26 16:45 247 3 gusting 5 30.6
2017-Jul-26 16:40 270 2 gusting 6 31.1
2017-Jul-26 16:35 247 1 gusting 3 31.1
2017-Jul-26 16:30 247 3 gusting 4 31.7
2017-Jul-26 16:25 247 3 gusting 5 31.7
2017-Jul-26 16:20 270 3 gusting 4 32.2
2017-Jul-26 16:15 270 2 gusting 4 32.2
2017-Jul-26 16:10 225 2 gusting 3 32.2
2017-Jul-26 16:05 270 2 gusting 3 32.8
2017-Jul-26 16:00 157 2 gusting 3 32.8
2017-Jul-26 15:55 270 2 gusting 3 32.8
2017-Jul-26 15:50 247 2 gusting 5 32.8
2017-Jul-26 15:45 270 3 gusting 5 32.8
2017-Jul-26 15:40 247 2 gusting 4 32.8
2017-Jul-26 15:35 270 4 gusting 6 32.8
2017-Jul-26 15:30 292 4 gusting 6 33.3
2017-Jul-26 15:25 247 3 gusting 6 33.3
2017-Jul-26 15:20 247 4 gusting 8 33.9
2017-Jul-26 15:15 270 2 gusting 4 33.9
2017-Jul-26 15:10 315 4 gusting 6 33.9
2017-Jul-26 15:05 270 4 gusting 6 34.4
2017-Jul-26 15:00 202 1 gusting 4 34.4
2017-Jul-26 14:55 270 2 gusting 5 34.4
2017-Jul-26 14:50 292 3 gusting 5 34.4
2017-Jul-26 14:45 270 1 gusting 1 34.4
2017-Jul-26 14:40 270 2 gusting 4 35.0
2017-Jul-26 14:35 247 5 gusting 6 35.0
2017-Jul-26 14:30 270 1 gusting 2 35.0
2017-Jul-26 14:25 292 1 gusting 3 34.4
2017-Jul-26 14:20 247 3 gusting 5 34.4
2017-Jul-26 14:15 225 2 gusting 5 34.4
2017-Jul-26 14:10 315 5 gusting 7 34.4
2017-Jul-26 14:05 315 4 gusting 5 34.4
2017-Jul-26 14:00 225 4 gusting 6 34.4
2017-Jul-26 13:55 270 6 gusting 8 34.4
2017-Jul-26 13:50 270 3 gusting 5 35.0
2017-Jul-26 13:45 247 6 gusting 8 35.0
2017-Jul-26 13:40 247 4 gusting 7 35.0
2017-Jul-26 13:35 270 6 gusting 9 35.0
2017-Jul-26 13:30 315 3 gusting 6 35.0
2017-Jul-26 13:25 225 3 gusting 8 35.0
2017-Jul-26 13:20 180 5 gusting 8 35.0
2017-Jul-26 13:10 270 5 gusting 7 35.0
2017-Jul-26 13:05 270 5 gusting 11 35.0
2017-Jul-26 13:00 180 3 gusting 6 35.0
2017-Jul-26 12:55 247 3 gusting 8 35.0
2017-Jul-26 12:50 225 6 gusting 8 35.0
2017-Jul-26 12:45 270 5 gusting 8 35.0
2017-Jul-26 12:40 225 4 gusting 6 35.6
2017-Jul-26 12:35 225 2 gusting 5 35.0
2017-Jul-26 12:30 225 3 gusting 6 35.0
2017-Jul-26 12:25 315 3 gusting 6 35.6
2017-Jul-26 12:20 270 5 gusting 9 35.6
2017-Jul-26 12:15 315 4 gusting 6 35.0
2017-Jul-26 12:10 270 4 gusting 6 35.0
2017-Jul-26 12:05 225 5 gusting 9 35.0
2017-Jul-26 12:00 180 3 gusting 5 35.6
2017-Jul-26 11:55 202 4 gusting 6 35.6
2017-Jul-26 11:50 135 3 gusting 4 35.6
2017-Jul-26 11:45 315 5 gusting 9 35.6
2017-Jul-26 11:40 202 5 gusting 7 35.6
2017-Jul-26 11:35 247 5 gusting 8 35.6
2017-Jul-26 11:29 225 4 gusting 6 36.1
2017-Jul-26 11:25 225 2 gusting 4 35.6
2017-Jul-26 11:20 202 2 gusting 4 35.6
2017-Jul-26 11:15 292 4 gusting 6 35.6
2017-Jul-26 11:10 225 4 gusting 6 35.0
2017-Jul-26 11:05 225 2 gusting 4 35.0
2017-Jul-26 11:00 180 3 gusting 5 34.4
2017-Jul-26 10:55 225 6 gusting 7 35.0
2017-Jul-26 10:50 225 2 gusting 6 35.0
2017-Jul-26 10:45 247 4 gusting 6 35.0
2017-Jul-26 10:40 270 4 gusting 6 35.0
2017-Jul-26 10:35 180 1 gusting 2 35.0
2017-Jul-26 10:30 202 6 gusting 11 35.6
2017-Jul-26 10:25 202 5 gusting 7 35.0
2017-Jul-26 10:20 157 1 gusting 2 34.4
2017-Jul-26 10:15 247 3 gusting 6 35.0
2017-Jul-26 10:10 202 3 gusting 6 35.0
2017-Jul-26 10:05 225 5 gusting 7 35.0
2017-Jul-26 10:00 202 5 gusting 7 35.0
2017-Jul-26 09:55 270 5 gusting 7 35.0
2017-Jul-26 09:50 315 2 gusting 3 34.4
2017-Jul-26 09:45 247 1 gusting 2 33.9
2017-Jul-26 09:40 315 2 gusting 6 34.4
2017-Jul-26 09:35 022 4 gusting 6 34.4
2017-Jul-26 09:30 270 4 gusting 6 35.0
2017-Jul-26 09:25 247 1 gusting 4 35.0
2017-Jul-26 09:20 270 2 gusting 3 34.4
2017-Jul-26 09:15 270 3 gusting 5 34.4
2017-Jul-26 09:10 247 6 gusting 8 34.4
2017-Jul-26 09:05 315 4 gusting 6 34.4
2017-Jul-26 09:00 270 4 gusting 6 34.4
2017-Jul-26 08:55 315 6 gusting 8 34.4
2017-Jul-26 08:50 315 3 gusting 4 34.4
2017-Jul-26 08:45 180 1 gusting 3 34.4
2017-Jul-26 08:40 247 3 gusting 5 34.4
2017-Jul-26 08:35 135 1 gusting 3 34.4
2017-Jul-26 08:30 270 1 gusting 3 34.4
2017-Jul-26 08:25 292 4 gusting 6 34.4
2017-Jul-26 08:20 225 4 gusting 7 34.4
2017-Jul-26 08:15 247 4 gusting 6 34.4
2017-Jul-26 08:10 247 2 gusting 5 34.4
2017-Jul-26 08:05 292 3 gusting 5 33.9
2017-Jul-26 08:00 157 2 gusting 4 33.9
2017-Jul-26 07:55 315 6 gusting 7 33.9
2017-Jul-26 07:50 202 4 gusting 6 33.9
2017-Jul-26 07:45 180 2 gusting 4 33.9
2017-Jul-26 07:40 225 3 gusting 5 33.9
2017-Jul-26 07:35 270 2 gusting 3 33.9
2017-Jul-26 07:30 247 4 gusting 6 34.4
2017-Jul-26 07:25 270 1 gusting 3 34.4
2017-Jul-26 07:20 022 2 gusting 3 34.4
2017-Jul-26 07:15 180 0 gusting 1 34.4
2017-Jul-26 07:10 202 33.9
2017-Jul-26 07:05 225 0 gusting 2 33.3
2017-Jul-26 07:00 292 1 gusting 3 33.3
2017-Jul-26 06:55 180 1 gusting 3 32.8
2017-Jul-26 06:50 315 1 gusting 2 32.8
2017-Jul-26 06:45 270 0 gusting 1 32.8
2017-Jul-26 06:40 202 1 gusting 2 32.8
2017-Jul-26 06:35 270 32.2
2017-Jul-26 06:30 202 2 gusting 3 32.8
2017-Jul-26 06:25 247 1 gusting 4 32.8
2017-Jul-26 06:20 225 0 gusting 1 32.2
2017-Jul-26 06:15 270 2 gusting 3 32.2
2017-Jul-26 06:10 180 1 gusting 2 32.2
2017-Jul-26 06:05 225 1 gusting 2 32.2
2017-Jul-26 06:00 247 1 gusting 1 32.2
2017-Jul-26 05:55 247 32.2
2017-Jul-26 05:50 225 0 gusting 1 31.7
2017-Jul-26 05:45 292 31.1
2017-Jul-26 05:40 315 2 gusting 3 31.1
2017-Jul-26 05:35 315 2 gusting 2 31.1
2017-Jul-26 05:30 315 0 gusting 2 31.1
2017-Jul-26 05:25 247 30.6
2017-Jul-26 05:20 292 29.4
2017-Jul-26 05:15 270 28.3
2017-Jul-26 05:10 090 27.2
2017-Jul-26 05:05 112 0 gusting 0 26.7
2017-Jul-26 05:00 045 0 gusting 1 25.6
2017-Jul-26 04:55 090 1 gusting 2 25.0
2017-Jul-26 04:50 112 1 gusting 2 24.4
2017-Jul-26 04:45 067 0 gusting 1 23.9
2017-Jul-26 04:40 112 1 gusting 1 23.3
2017-Jul-26 04:35 090 0 gusting 1 23.3
2017-Jul-26 04:30 045 22.8
2017-Jul-26 04:25 112 0 gusting 2 22.2
2017-Jul-26 04:20 337 0 gusting 0 21.7
2017-Jul-26 04:15 112 2 gusting 3 21.7
2017-Jul-26 04:10 090 2 gusting 3 21.1
2017-Jul-26 04:05 045 0 gusting 2 21.1
2017-Jul-26 04:00 112 0 gusting 1 21.1
2017-Jul-26 03:55 090 2 gusting 3 21.1
2017-Jul-26 03:50 067 2 gusting 3 21.1
2017-Jul-26 03:45 090 2 gusting 3 21.1
2017-Jul-26 03:40 090 2 gusting 2 20.6
2017-Jul-26 03:35 090 2 gusting 3 20.6
2017-Jul-26 03:30 090 1 gusting 1 20.6
2017-Jul-26 03:25 112 2 gusting 3 20.6
2017-Jul-26 03:20 090 0 gusting 1 20.6
2017-Jul-26 03:15 090 0 gusting 1 20.6
2017-Jul-26 03:10 112 1 gusting 2 20.6
2017-Jul-26 03:05 090 0 gusting 1 20.6
2017-Jul-26 03:00 067 0 gusting 0 20.6
2017-Jul-26 02:55 112 1 gusting 2 20.6
2017-Jul-26 02:50 090 1 gusting 2 20.6
2017-Jul-26 02:45 135 20.6
2017-Jul-26 02:40 180 0 gusting 0 20.6
2017-Jul-26 02:35 090 0 gusting 1 20.6
2017-Jul-26 02:30 090 21.1
2017-Jul-26 02:25 090 21.1
2017-Jul-26 02:20 090 0 gusting 0 21.1
2017-Jul-26 02:15 090 1 gusting 1 21.1
2017-Jul-26 02:10 112 0 gusting 0 21.7
2017-Jul-26 02:05 045 21.7
2017-Jul-26 02:00 157 0 gusting 0 22.2
2017-Jul-26 01:55 22.2
2017-Jul-26 01:50 22.2
2017-Jul-26 01:45 22.2
2017-Jul-26 01:40 22.2
2017-Jul-26 01:35 022 0 gusting 1 21.7
2017-Jul-26 01:30 045 0 gusting 0 21.7
2017-Jul-26 01:25 090 21.7
2017-Jul-26 01:20 045 1 gusting 1 21.7
2017-Jul-26 01:15 067 21.7
2017-Jul-26 01:10 21.7
2017-Jul-26 01:05 090 21.7
2017-Jul-26 01:00 090 0 gusting 0 21.7
2017-Jul-26 00:55 090 22.2
2017-Jul-26 00:50 067 22.2
2017-Jul-26 00:45 112 22.8
2017-Jul-26 00:40 202 23.3
2017-Jul-26 00:35 337 1 gusting 1 23.3
2017-Jul-26 00:30 337 1 gusting 2 23.3
2017-Jul-26 00:25 337 1 gusting 2 23.3
2017-Jul-26 00:20 22.8
2017-Jul-26 00:15 22.8
2017-Jul-26 00:10 337 0 gusting 1 22.8
2017-Jul-26 00:05 22.8
2017-Jul-26 00:00 23.3
2017-Jul-25 23:55 23.3
2017-Jul-25 23:50 22.8
2017-Jul-25 23:45 22.2
2017-Jul-25 23:40 22.2
2017-Jul-25 23:35 315 0 gusting 1 22.2
2017-Jul-25 23:30 22.2
2017-Jul-25 23:25 090 22.2
2017-Jul-25 23:20 090 22.2
2017-Jul-25 23:15 090 0 gusting 0 22.2
2017-Jul-25 23:10 112 0 gusting 1 22.8
2017-Jul-25 23:05 112 0 gusting 1 22.8
2017-Jul-25 23:00 090 22.8
2017-Jul-25 22:55 067 0 gusting 1 22.8
2017-Jul-25 22:50 067 22.8
2017-Jul-25 22:45 090 23.3
2017-Jul-25 22:40 045 23.3
2017-Jul-25 22:35 090 0 gusting 0 23.9
2017-Jul-25 22:30 090 0 gusting 1 23.9
2017-Jul-25 22:25 090 1 gusting 1 24.4
2017-Jul-25 22:20 112 0 gusting 0 25.0
2017-Jul-25 22:15 315 1 gusting 1 25.0
2017-Jul-25 22:10 24.4
2017-Jul-25 22:05 022 1 gusting 1 24.4
2017-Jul-25 22:00 24.4
2017-Jul-25 21:55 022 24.4
2017-Jul-25 21:50 337 0 gusting 0 25.0
2017-Jul-25 21:45 25.0
2017-Jul-25 21:40 25.0
2017-Jul-25 21:35 067 25.6
2017-Jul-25 21:30 090 26.1
2017-Jul-25 21:25 26.1
2017-Jul-25 21:20 26.1
2017-Jul-25 21:15 26.1
2017-Jul-25 21:10 26.1
2017-Jul-25 21:05 26.1
2017-Jul-25 21:00 292 0 gusting 1 26.1
2017-Jul-25 20:55 022 2 gusting 3 25.6
2017-Jul-25 20:50 25.0
2017-Jul-25 20:45 022 2 gusting 2 25.0
2017-Jul-25 20:40 337 1 gusting 2 24.4
2017-Jul-25 20:35 337 1 gusting 2 23.9
2017-Jul-25 20:30 022 23.9
2017-Jul-25 20:25 247 0 gusting 1 23.9
2017-Jul-25 20:20 270 23.9
2017-Jul-25 20:15 135 24.4
2017-Jul-25 20:10 090 24.4
2017-Jul-25 20:05 090 24.4
2017-Jul-25 20:00 090 0 gusting 0 24.4
2017-Jul-25 19:55 022 0 gusting 0 25.0
2017-Jul-25 19:50 090 0 gusting 1 25.0
2017-Jul-25 19:45 090 0 gusting 1 25.0
2017-Jul-25 19:40 090 0 gusting 0 25.0
2017-Jul-25 19:35 090 0 gusting 1 25.0
2017-Jul-25 19:30 090 25.6
2017-Jul-25 19:25 090 0 gusting 1 25.6
2017-Jul-25 19:20 112 0 gusting 1 25.6
2017-Jul-25 19:15 090 26.1
2017-Jul-25 19:10 112 0 gusting 0 26.1
2017-Jul-25 19:05 090 0 gusting 0 26.1
2017-Jul-25 19:00 135 0 gusting 1 26.7
2017-Jul-25 18:55 090 0 gusting 1 26.7
2017-Jul-25 18:50 090 26.7
2017-Jul-25 18:45 090 1 gusting 1 26.7
2017-Jul-25 18:40 112 0 gusting 1 26.7
2017-Jul-25 18:35 090 0 gusting 1 27.2
2017-Jul-25 18:30 090 0 gusting 1 27.2
2017-Jul-25 18:25 067 1 gusting 2 27.2
2017-Jul-25 18:20 090 0 gusting 1 27.8
2017-Jul-25 18:15 090 27.8
2017-Jul-25 18:10 27.8
2017-Jul-25 18:05 292 28.3
2017-Jul-25 18:00 090 28.3
2017-Jul-25 17:55 157 28.9
2017-Jul-25 17:50 270 1 gusting 1 28.9
2017-Jul-25 17:45 225 1 gusting 2 29.4
2017-Jul-25 17:40 315 0 gusting 1 29.4
2017-Jul-25 17:35 247 1 gusting 2 30.0
2017-Jul-25 17:30 247 2 gusting 3 30.0
2017-Jul-25 17:25 247 1 gusting 3 30.6
2017-Jul-25 17:20 247 0 gusting 1 31.1
2017-Jul-25 17:15 225 0 gusting 3 31.1
2017-Jul-25 17:10 225 0 gusting 0 31.7
2017-Jul-25 17:05 270 0 gusting 1 31.7
2017-Jul-25 17:00 135 1 gusting 3 32.2
2017-Jul-25 16:55 247 1 gusting 4 32.2
2017-Jul-25 16:50 247 3 gusting 6 32.8
2017-Jul-25 16:45 292 3 gusting 4 33.3
2017-Jul-25 16:40 202 0 gusting 1 33.3
2017-Jul-25 16:35 202 1 gusting 3 33.3
2017-Jul-25 16:30 202 1 gusting 3 33.9
2017-Jul-25 16:25 202 1 gusting 1 33.9
2017-Jul-25 16:20 225 1 gusting 3 34.4
2017-Jul-25 16:15 225 1 gusting 4 34.4
2017-Jul-25 16:10 270 2 gusting 3 35.0
2017-Jul-25 16:05 270 1 gusting 2 35.0
2017-Jul-25 16:00 270 0 gusting 1 35.0
2017-Jul-25 15:55 292 2 gusting 4 35.0
2017-Jul-25 15:50 247 3 gusting 6 35.0
2017-Jul-25 15:45 270 2 gusting 3 35.0
2017-Jul-25 15:40 270 2 gusting 6 35.0
2017-Jul-25 15:35 247 1 gusting 5 35.6
2017-Jul-25 15:30 225 3 gusting 6 35.6
2017-Jul-25 15:25 022 2 gusting 5 35.6
2017-Jul-25 15:20 337 1 gusting 3 35.6
2017-Jul-25 15:15 247 5 gusting 8 35.6
2017-Jul-25 15:10 270 3 gusting 8 35.6
2017-Jul-25 15:05 225 4 gusting 6 36.1
2017-Jul-25 15:00 225 3 gusting 6 36.1
2017-Jul-25 14:55 270 5 gusting 6 36.1
2017-Jul-25 14:50 247 4 gusting 7 36.1
2017-Jul-25 14:45 270 6 gusting 7 36.1
2017-Jul-25 14:40 202 6 gusting 8 36.1
2017-Jul-25 14:35 270 6 gusting 8 36.7
2017-Jul-25 14:30 247 6 gusting 13 36.7
2017-Jul-25 14:25 180 5 gusting 8 36.7
2017-Jul-25 14:20 270 3 gusting 5 36.7
2017-Jul-25 14:15 247 6 gusting 9 36.7
2017-Jul-25 14:10 270 3 gusting 6 36.7
2017-Jul-25 14:05 315 5 gusting 7 36.7
2017-Jul-25 14:00 270 5 gusting 8 37.2
2017-Jul-25 13:55 270 2 gusting 5 37.2
2017-Jul-25 13:50 292 6 gusting 10 37.8
2017-Jul-25 13:45 225 4 gusting 6 37.8
2017-Jul-25 13:40 270 6 gusting 9 37.8
2017-Jul-25 13:35 247 3 gusting 5 37.2
2017-Jul-25 13:30 315 3 gusting 5 37.2
2017-Jul-25 13:25 225 3 gusting 6 37.2
2017-Jul-25 13:20 247 2 gusting 5 37.2
2017-Jul-25 13:10 202 3 gusting 5 37.8
2017-Jul-25 13:05 202 4 gusting 6 37.2
2017-Jul-25 13:00 270 4 gusting 6 37.2
2017-Jul-25 12:55 225 3 gusting 5 37.2
2017-Jul-25 12:50 247 2 gusting 5 37.2
2017-Jul-25 12:45 225 4 gusting 6 37.2
2017-Jul-25 12:40 270 2 gusting 6 37.2
2017-Jul-25 12:35 270 4 gusting 6 36.7
2017-Jul-25 12:30 247 2 gusting 4 36.7
2017-Jul-25 12:25 270 5 gusting 7 36.7
2017-Jul-25 12:20 225 6 gusting 8 37.2
2017-Jul-25 12:15 202 6 gusting 8 37.2
2017-Jul-25 12:10 202 4 gusting 8 37.2
2017-Jul-25 12:05 315 6 gusting 10 37.2
2017-Jul-25 12:00 292 6 gusting 8 37.2
2017-Jul-25 11:55 247 4 gusting 7 37.2
2017-Jul-25 11:50 225 5 gusting 7 37.2
2017-Jul-25 11:45 270 5 gusting 7 37.8
2017-Jul-25 11:40 247 5 gusting 7 37.2
2017-Jul-25 11:35 202 3 gusting 6 37.2
2017-Jul-25 11:30 247 5 gusting 7 37.2
2017-Jul-25 11:25 247 3 gusting 5 37.8
2017-Jul-25 11:20 292 2 gusting 5 37.8
2017-Jul-25 11:15 225 5 gusting 7 37.2
2017-Jul-25 11:10 270 3 gusting 5 37.2
2017-Jul-25 11:05 270 4 gusting 5 37.2
2017-Jul-25 11:00 270 5 gusting 6 37.2
2017-Jul-25 10:55 225 3 gusting 6 37.8
2017-Jul-25 10:50 247 5 gusting 6 37.8
2017-Jul-25 10:45 270 2 gusting 3 37.8
2017-Jul-25 10:40 315 2 gusting 5 37.2
2017-Jul-25 10:35 247 2 gusting 4 37.8
2017-Jul-25 10:30 225 2 gusting 4 37.2
2017-Jul-25 10:25 225 3 gusting 6 37.2
2017-Jul-25 10:20 270 4 gusting 6 37.2
2017-Jul-25 10:15 292 4 gusting 6 37.8
2017-Jul-25 10:10 180 5 gusting 6 37.8
2017-Jul-25 10:05 180 3 gusting 5 37.8
2017-Jul-25 10:00 292 5 gusting 6 37.8
2017-Jul-25 09:55 202 1 gusting 5 37.8
2017-Jul-25 09:50 247 3 gusting 5 37.2
2017-Jul-25 09:45 270 2 gusting 4 37.2
2017-Jul-25 09:40 292 4 gusting 6 37.2
2017-Jul-25 09:35 225 4 gusting 6 37.2
2017-Jul-25 09:30 225 3 gusting 5 37.8
2017-Jul-25 09:25 157 2 gusting 3 37.8
2017-Jul-25 09:20 292 1 gusting 3 37.8
2017-Jul-25 09:15 225 4 gusting 5 37.8
2017-Jul-25 09:10 225 1 gusting 3 37.8
2017-Jul-25 09:05 225 1 gusting 3 37.2
2017-Jul-25 09:00 225 4 gusting 6 37.2
2017-Jul-25 08:55 225 2 gusting 5 37.8
2017-Jul-25 08:50 202 2 gusting 3 37.8
2017-Jul-25 08:45 157 0 gusting 0 37.2
2017-Jul-25 08:40 315 1 gusting 3 37.2
2017-Jul-25 08:35 270 1 gusting 3 37.8
2017-Jul-25 08:30 225 37.2
2017-Jul-25 08:25 247 2 gusting 4 36.7
2017-Jul-25 08:20 247 1 gusting 2 36.7
2017-Jul-25 08:15 247 2 gusting 4 37.2
2017-Jul-25 08:10 090 36.7
2017-Jul-25 08:05 292 1 gusting 3 36.1
2017-Jul-25 08:00 225 0 gusting 1 35.6